#timestamp,LO_Frequency,Hit,StdDev 
1569736815.4,286047001.1,P
1569736835.2,286047001.0,N
1569736855.0,286047001.9,N
1569736855.9,286047001.9,N
1569736875.8,286047002.8,N
1569736895.6,286047000.4,N
1569736915.4,286047000.4,N
1569736935.3,286046998.5,N
1569736955.1,286047000.0,N
1569736975.9,286047000.0,N
1569736995.7,286047002.6,N
1569737015.5,286047002.6,N
1569737035.4,286047002.3,N
1569737055.2,286047004.4,N
1569737075.0,286047003.9,N
1569737076.0,286047003.9,N
1569737095.8,286047003.2,N
1569737115.6,286047001.3,N
1569737135.5,286047011.9,Y
1569737155.3,286047002.2,P
1569737175.1,286047004.3,P
1569737195.9,286046999.9,N
1569737215.7,286047002.7,N
1569737235.6,286046999.9,N
1569737255.4,286047000.5,N
1569737275.2,286047000.9,N
1569737295.1,286047000.9,N
1569737296.0,286047000.9,N
1569737315.8,286046998.1,N
1569737335.6,286047001.2,N
1569737355.5,286046998.8,N
1569737375.3,286047000.9,N
1569737395.2,286047000.4,N
1569737415.9,286047000.5,N
1569737435.7,286047000.0,N
1569737455.6,286046999.4,N
1569737475.4,286046998.6,N
1569737495.2,286046999.4,N
1569737515.1,286047000.7,N
1569737516.0,286047000.7,N
1569737535.8,286046999.8,N
1569737555.7,286047000.8,N
1569737575.5,286046998.2,N
1569737595.3,286046999.3,N
1569737615.2,286046999.6,N
1569737635.0,286046999.3,N
1569737635.9,286046999.3,N
1569737655.8,286046998.7,N
1569737675.6,286047000.1,N
1569737695.4,286047002.5,N
1569737715.3,286047001.4,N
1569737735.1,286047004.0,Y
1569737755.9,286047006.0,P
1569737775.7,286047004.5,N
1569737795.5,286047007.6,P
1569737815.4,286047004.7,N
1569737835.2,286047004.5,N
1569737855.0,286047007.2,Y
1569737856.0,286047007.2,P
1569737875.8,286047001.6,N
1569737895.6,286047004.0,N
1569737915.5,286047004.0,N
1569737935.3,286047003.9,N
1569737955.1,286047001.3,N
1569737975.9,286047001.6,N
1569737995.7,286047002.0,N
1569738015.6,286047002.3,N
1569738035.4,286047000.4,N
1569738055.2,286046999.7,N
1569738075.1,286047001.5,N
1569738076.0,286047001.5,N
1569738095.8,286047001.0,N
1569738115.1,286047000.6,N
1569738116.0,286047000.6,N
1569738135.8,286047001.2,N
1569738155.7,286046998.3,N
1569738175.5,286047001.1,N
1569738195.3,286046999.3,N
1569738215.2,286046998.4,N
1569738235.0,286046996.8,N
1569738235.9,286046996.8,N
1569738255.8,286046996.8,N
1569738275.6,286046997.0,N
1569738295.4,286046997.5,N
1569738315.3,286046997.4,N
1569738335.1,286046996.5,N
1569738355.8,286046996.6,N
1569738375.7,286046997.0,N
1569738395.5,286046997.3,N
1569738415.4,286046997.0,N
1569738435.2,286046998.1,N
1569738455.0,286046999.2,N
1569738455.9,286046999.2,N
1569738475.8,286046997.6,N
1569738495.6,286046995.3,N
1569738515.4,286046995.1,N
1569738535.3,286046995.1,N
1569738555.1,286046995.7,N
1569738575.9,286046995.5,N
1569738595.7,286046996.3,N
1569738615.5,286046993.4,Y
1569738635.4,286046994.9,P
1569738655.2,286046997.0,N
1569738675.1,286046998.0,N
1569738676.0,286046998.0,N
1569738695.8,286046995.8,Y
1569738715.6,286046999.2,P
1569738735.5,286046997.6,N
1569738755.3,286046997.6,N
1569738775.2,286046997.7,N
1569738795.9,286046998.0,N
1569738815.7,286046995.7,Y
1569738835.6,286046997.9,P
1569738855.4,286046995.4,P
1569738875.2,286046997.6,N
1569738895.1,286046994.9,Y
1569738896.0,286046994.9,P
1569738915.8,286046998.1,N
1569738935.7,286047000.0,N
1569738955.5,286046999.9,N
1569738975.3,286046998.3,N
1569738995.2,286046999.4,N
1569739015.0,286046996.9,N
1569739015.9,286046996.9,N
1569739035.8,286046999.2,N
1569739055.6,286046998.2,N
1569739075.4,286047000.0,N
1569739095.3,286047003.9,N
1569739115.1,286047003.6,N
1569739135.9,286047001.4,N
1569739155.7,286047004.4,N
1569739175.5,286047003.6,N
1569739195.4,286047004.4,N
1569739215.2,286047004.0,N
1569739235.0,286047002.2,N
1569739235.9,286047002.2,N
1569739255.8,286047002.7,N
1569739275.6,286047000.8,N
1569739295.5,286046998.7,N
1569739315.3,286046998.5,N
1569739335.1,286046999.3,N
1569739355.9,286047000.9,N
1569739375.7,286047002.7,N
1569739395.6,286047002.5,N
1569739415.4,286047001.7,N
1569739435.2,286047003.0,N
1569739455.1,286047003.8,N
1569739456.0,286047003.8,N
1569739475.8,286047003.5,N
1569739495.7,286047004.2,N
1569739515.5,286047004.1,N
1569739535.3,286047000.3,N
1569739555.2,286047000.3,N
1569739575.0,286046998.8,N
1569739575.9,286046998.8,N
1569739595.8,286046998.5,N
1569739615.6,286046999.5,N
1569739635.4,286046999.0,N
1569739655.3,286046998.3,N
1569739675.1,286047000.4,N
1569739695.9,286047000.9,N
1569739715.7,286047000.9,N
1569739735.5,286047001.1,N
1569739755.4,286047004.4,N
1569739775.2,286047004.4,N
1569739795.0,286047003.8,N
1569739795.9,286047003.8,N
1569739815.8,286047002.2,N
1569739835.6,286047003.4,N
1569739855.5,286047003.3,N
1569739875.3,286047004.4,N
1569739895.1,286047002.0,N
1569739915.9,286047002.3,N
1569739935.7,286047002.7,N
1569739955.6,286047000.9,N
1569739975.4,286046998.9,N
1569739995.2,286046998.6,N
1569740015.1,286047000.4,N
1569740016.0,286047000.4,N
1569740035.2,286047001.6,N
1569740055.0,286047005.6,N
1569740055.9,286047005.6,N
1569740075.8,286047003.7,N
1569740095.6,286047003.3,N
1569740115.5,286047001.5,N
1569740135.3,286047001.9,N
1569740155.1,286047001.3,N
1569740175.9,286047001.4,N
1569740195.7,286047004.3,N
1569740215.6,286047004.2,N
1569740235.4,286047001.4,N
1569740255.2,286047003.3,N
1569740275.1,286047003.6,N
1569740276.0,286047003.6,N
1569740295.8,286047003.1,N
1569740315.7,286047003.3,N
1569740335.5,286047002.9,N
1569740355.7,286047003.6,N
1569740375.5,286047003.5,N
1569740395.4,286047003.9,N
